Satellite: NOAA-17
Catalog number: 27453
Epoch time:      05200.19615186
Element set:     461
Inclination:      098.6585 deg
RA of node:       273.2232 deg
Eccentricity:    0.0011189
Arg of perigee:   326.2963 deg
Mean anomaly:     033.7511 deg
Mean motion:   14.23683885 rev/day
Decay rate:       -4.3e-07 rev/day^2
Epoch rev:           15939
Checksum:              311

Satellite: NOAA-18
Catalog number: 28654
Epoch time:      05202.45749214
Element set:      70
Inclination:      098.7454 deg
RA of node:       148.5671 deg
Eccentricity:    0.0015322
Arg of perigee:   078.7112 deg
Mean anomaly:     281.5764 deg
Mean motion:   14.10864947 rev/day
Decay rate:        6.3e-07 rev/day^2
Epoch rev:             874
Checksum:              310

/EX
SB KEPS @ AMSAT  $ORB05202.M
Orbital Elements  05202.MISC

HR AMSAT ORBITAL ELEMENTS FOR MANNED AND MISCELLANEOUS SATELLITES
FROM WA5QGD FORT WORTH,TX July 21, 2005
Send SUBSCRIBE KEPS/UNSUBSCRIBE KEPS to majordomo@amsat.org only
BID: ORB05202.M
TO ALL RADIO AMATEURS BT

Satellite: HUBBLE
Catalog number: 20580
Epoch time:      05202.79540754
Element set:     387
Inclination:      028.4678 deg
RA of node:       043.2761 deg
Eccentricity:    0.0003671
Arg of perigee:   275.5717 deg
Mean anomaly:     084.4451 deg
Mean motion:   14.99779496 rev/day
Decay rate:       4.65e-06 rev/day^2
Epoch rev:           63544
Checksum:              329

Satellite: UARS
Catalog number: 21701
Epoch time:      05201.83160831
Element set:    0488
Inclination:      056.9810 deg
RA of node:       053.6650 deg
Eccentricity:    0.0006195
Arg of perigee:   083.4667 deg
Mean anomaly:     276.7009 deg
Mean motion:   15.03864937 rev/day
Decay rate:       2.64e-06 rev/day^2
Epoch rev:           75855
Checksum:              306

Satellite: PO-34
Catalog number: 25520
Epoch time:      05201.94146359
Element set:    0236
Inclination:      028.4585 deg
RA of node:       086.6135 deg
Eccentricity:    0.0005547
Arg of perigee:   230.9042 deg
Mean anomaly:     129.1058 deg
Mean motion:   15.16355464 rev/day
Decay rate:       6.52e-06 rev/day^2
Epoch rev:           37171
Checksum:              291

Satellite: ISS
Catalog number: 25544
Epoch time:      05202.96681713
Element set:     965
Inclination:      051.6450 deg
RA of node:       082.7804 deg
Eccentricity:    0.0003336
Arg of perigee:   141.9294 deg
Mean anomaly:     055.8382 deg
Mean motion:   15.71861227 rev/day
Decay rate:     1.3205e-04 rev/day^2
Epoch rev:           38115
Checksum:              292

Satellite: WO-39
Catalog number: 26061
Epoch time:      03303.41062303
Element set:     973
Inclination:      100.1904 deg
RA of node:       047.3011 deg
Eccentricity:    0.0034615
Arg of perigee:   281.6926 deg
Mean anomaly:     078.0378 deg
Mean motion:   14.38082544 rev/day
Decay rate:      2.252e-05 rev/day^2
Epoch rev:           19701
Checksum:              268

Satellite: OO-38
Catalog number: 26063
Epoch time:      05201.64748580
Element set:    0396
Inclination:      100.2128 deg
RA of node:       067.8077 deg
Eccentricity:    0.0036651
Arg of perigee:   321.4417 deg
Mean anomaly:     038.4148 deg
Mean motion:   14.35725943 rev/day
Decay rate:      -1.00e-06 rev/day^2
Epoch rev:           28710
Checksum:              289

Satellite: NO-45
Catalog number: 26932
Epoch time:      05202.50106064
Element set:      81
Inclination:      067.0573 deg
RA of node:       139.0782 deg
Eccentricity:    0.0005897
Arg of perigee:   243.2608 deg
Mean anomaly:     116.7910 deg
Mean motion:   14.29490978 rev/day
Decay rate:      -3.13e-06 rev/day^2
Epoch rev:           19870
Checksum:              304

/EX




----
Via the keps mailing list at AMSAT.ORG courtesy of AMSAT-NA.
To unsubscribe, send "unsubscribe keps" to Majordomo@amsat.org

--- ViaMAIL!/WC v1.60d
 * Origin: Chowdanet (401-331-0615) telnet://chowdanet.com  (1:323/120)